Address 0xe215f300f89732bfecd598aeafe1d397e2bae86b 1

Txn Hash
Block
From
To
Value [Txn Fee]
0x80bc213367dfc0ca2684285456271292bce4ee262f036ebc40bfb5bd570131ab104971952021-07-11 11:18:3118 days 1 hr ago0xe215f300f89732bfecd598aeafe1d397e2bae86bOUT 0x8a15faeb151ba20b6038ee339daa93e5a429dedd0 BNB0.00042673
0x7b115f44f4dd2279a4b7925de34411f25169bca4c77f0fe53be071c8b1ae7149104970612021-07-11 11:11:4918 days 1 hr ago0xe215f300f89732bfecd598aeafe1d397e2bae86bOUT 0xdb73dde1867843fdca5244258f2fd4b6dc7b154e0.15 BNB0.07515264
0x09fcc1953267f38d09bf23f624e4016ca9d88ec644153777aad7bbd2df154b46104970532021-07-11 11:11:2518 days 1 hr ago0xe215f300f89732bfecd598aeafe1d397e2bae86bOUT 0x8a15faeb151ba20b6038ee339daa93e5a429dedd0 BNB0.0008989
0xcd69b54d80cddea8f0f0eef6e71496b60ec85601cdcae16d1dadedb605d110dd104966122021-07-11 10:49:2218 days 2 hrs ago0xe215f300f89732bfecd598aeafe1d397e2bae86bOUT Contract Creation0.136 BNB0.02454228
0x7fba590188d5970469544cc8d0fe25e0274c0198001d7e139c01fae0ae1461a698529422021-06-18 22:42:4640 days 14 hrs ago0xe215f300f89732bfecd598aeafe1d397e2bae86bOUT 0x963da4020e44865b27a28fe62f02f260444107ff0 BNB0.00057044
0xd3f80cd704cd8afb08c4edda2b5fc4076b4efcc642f4c70a14ada09424b032d398529282021-06-18 22:42:0440 days 14 hrs ago0xe215f300f89732bfecd598aeafe1d397e2bae86bOUT Contract Creation0 BNB0.01104207
0xfacc1fe34e7502dd7a80cf3c2c5d4f21b84b98cbf6a8729ea4cd04196b08505b98528782021-06-18 22:39:3440 days 14 hrs ago0xe215f300f89732bfecd598aeafe1d397e2bae86bOUT 0x7a7289923c6d66ca2cfa5ae805f314d01e49a67a0 BNB0.00057056
0xbe7aa79912f983742ce0a4de107beac3b0b3255f99f1caabbccc2c2b6004e8c398528022021-06-18 22:35:4640 days 14 hrs ago0xe215f300f89732bfecd598aeafe1d397e2bae86bOUT Contract Creation0 BNB0.01104207
0xb0be735acf013bdde9a7f037520fa89255871df51adcd12115f197f623c6b62898523652021-06-18 22:13:5540 days 14 hrs ago0xe215f300f89732bfecd598aeafe1d397e2bae86bOUT 0xf4e42dea24f0e6ba826c339f6723134eb99d4c2a0 BNB0.000418
0xf8cebe66bb3d2d0dd4c444b4c5ac10fe77dea6e037cf1def8533b0019ae21f8798522972021-06-18 22:10:3140 days 14 hrs ago0xe215f300f89732bfecd598aeafe1d397e2bae86bOUT 0xdb73dde1867843fdca5244258f2fd4b6dc7b154e0.15 BNB0.0731084
0x516ff8b178737c9a9dcc7633a26b58746fa865f7373693b14c211410d55298df98522932021-06-18 22:10:1940 days 14 hrs ago0xe215f300f89732bfecd598aeafe1d397e2bae86bOUT 0xdb73dde1867843fdca5244258f2fd4b6dc7b154e0.15 BNB0.07310888
0x47b9947f0e1e1a014f4373582777d86db5256cd83b31ea0fb3749907000b2df798522902021-06-18 22:10:1040 days 14 hrs ago0xe215f300f89732bfecd598aeafe1d397e2bae86bOUT 0xdb73dde1867843fdca5244258f2fd4b6dc7b154e0.15 BNB0.07310924
0xe5de5c104a879fb4b4bb5d780fc2c2b39eb78d85fe91e8ff6e4c0eae2089d4f798522852021-06-18 22:09:5540 days 14 hrs ago0xe215f300f89732bfecd598aeafe1d397e2bae86bOUT 0xdb73dde1867843fdca5244258f2fd4b6dc7b154e0.15 BNB0.07310816
0x37f7bfd17f890c9bcd8ac09e9d8f8edcdd9597df175e1343b2911e5a662ccb4098522802021-06-18 22:09:4040 days 14 hrs ago0xe215f300f89732bfecd598aeafe1d397e2bae86bOUT 0xdb73dde1867843fdca5244258f2fd4b6dc7b154e0.15 BNB0.07310852
0x14fed7faabb445789a19bb05bd4fecefe1f592a6202c493cec67cb9d55b0e9c798522762021-06-18 22:09:2840 days 14 hrs ago0xe215f300f89732bfecd598aeafe1d397e2bae86bOUT 0xdb73dde1867843fdca5244258f2fd4b6dc7b154e0.15 BNB0.07310804
0xd54c5ef013b1a84b6f7c683dc3b907b0413f101b5247616d126fe4f732fb14c498522732021-06-18 22:09:1940 days 14 hrs ago0xe215f300f89732bfecd598aeafe1d397e2bae86bOUT 0xdb73dde1867843fdca5244258f2fd4b6dc7b154e0.15 BNB0.07310792
0x357172091902053cf4a242f44e5538be003c8a30a36177db546565f52f8cc56198522702021-06-18 22:09:1040 days 14 hrs ago0xe215f300f89732bfecd598aeafe1d397e2bae86bOUT 0xdb73dde1867843fdca5244258f2fd4b6dc7b154e0.15 BNB0.01198592
0xdfa8bfbc3ea75d5697811af1e18b47043794c82826f5b62774085ce415e6c1c298522602021-06-18 22:08:4040 days 14 hrs ago0xe215f300f89732bfecd598aeafe1d397e2bae86bOUT 0xf4e42dea24f0e6ba826c339f6723134eb99d4c2a0 BNB0.00045257
0xcf71900c8bc9af16fee656e8517a00d5e6ca9a16bddb84ae6e5c8b7443d2071698516482021-06-18 21:38:0440 days 15 hrs ago0xe215f300f89732bfecd598aeafe1d397e2bae86bOUT Contract Creation0.148 BNB0.02435004
0x6ac5327c607df77ad14a4271e9e31c91d5cdf0b101ef10a235ec3e14b1b03fa698514052021-06-18 21:25:5540 days 15 hrs ago0xe215f300f89732bfecd598aeafe1d397e2bae86bOUT Contract Creation0 BNB0.01507788
0xd74f73c553afee55f8e12dfec17b4c4bf0da0784c2fa2c4db705340bee83f28386686702021-05-08 17:57:5881 days 18 hrs ago0xe215f300f89732bfecd598aeafe1d397e2bae86bOUT Contract Creation0 BNB0.00941896
0xe3970fad9e301a1f1b74fdf8d583fd4cfed8098517dd2b8a47140453ea3f77e086621112021-05-08 12:30:0182 days 20 mins ago0xe215f300f89732bfecd598aeafe1d397e2bae86bOUT Contract Creation0 BNB0.00899602
0xb08f31a6678046c63577d4e15691e3677c1c3595e5ee0f2878b9b03340e64b5686617152021-05-08 12:10:1382 days 40 mins ago0xe215f300f89732bfecd598aeafe1d397e2bae86bOUT Contract Creation0 BNB0.00899602
0xb22d94c472353771e06ae59b3eea5c13ad10b82b36383bd0aaa3283ab72e3d4b86615912021-05-08 12:03:5682 days 46 mins ago0xe215f300f89732bfecd598aeafe1d397e2bae86bOUT Contract Creation0 BNB0.00899602
0x3a7219e051b5128cbe8fe0e32140cb51cebc875b865ed5622c544d2fced50da386615382021-05-08 12:01:1782 days 49 mins ago0xe215f300f89732bfecd598aeafe1d397e2bae86bOUT Contract Creation0 BNB0.00897736
[ Download CSV Export 
Parent Txn Hash Block From To Value
Loading

Contract Name:
0 BNB

Compiler Version
0

Optimization Enabled:
0 BNB

Other Settings:
-NA-
Block Transaction Gas Used Reward
Age Block Fee Address BC Fee Address Voting Power Jailed Incoming
Block Uncle Number Difficulty Gas Used Reward
Loading